This is the latest recevied weather packets stored in our database for station/object OK2JF-6. If no packets are shown the sender has not sent any weather packets the latest 10 day(s).
| Time | Temp. | Humidity | Pressure | Rain* | Wind** | Luminosity | Snow |
|---|---|---|---|---|---|---|---|
| 1777924923 | 16.67° C | 51% | 1084.6 hPa | 0 mm | - | 0 W/m² | - |
| 1777924203 | 16.67° C | 52% | 1084.6 hPa | 0 mm | - | 0 W/m² | - |
| 1777923918 | 16.67° C | 52% | 1084.5 hPa | 0 mm | - | 0 W/m² | - |
| 1777923557 | 17.22° C | 51% | 1084.7 hPa | 0 mm | - | 0 W/m² | - |
| 1777923363 | 17.22° C | 52% | 1084.7 hPa | 0 mm | - | 0 W/m² | - |
| 1777923123 | 17.22° C | 51% | 1084.6 hPa | 0 mm | - | 0 W/m² | - |
| 1777922943 | 17.22° C | 52% | 1084.6 hPa | 0 mm | - | 0 W/m² | - |
| 1777922763 | 17.22° C | 51% | 1084.9 hPa | 0 mm | - | 0 W/m² | - |
| 1777922703 | 17.22° C | 51% | 1084.6 hPa | 0 mm | - | 0 W/m² | - |
| 1777922463 | 17.22° C | 51% | 1084.9 hPa | 0 mm | - | 0 W/m² | - |
| 1777921878 | 17.22° C | 51% | 1084.9 hPa | 0 mm | - | 0 W/m² | - |
| 1777921623 | 17.78° C | 51% | 1084.9 hPa | 0 mm | - | 0 W/m² | - |
| 1777920903 | 17.78° C | 51% | 1084.7 hPa | 0 mm | - | 0 W/m² | - |
| 1777920543 | 17.78° C | 51% | 1084.6 hPa | 0 mm | - | 0 W/m² | - |
| 1777920003 | 18.33° C | 51% | 1084.7 hPa | 0 mm | - | 0 W/m² | - |
| 1777919883 | 18.33° C | 51% | 1084.5 hPa | 0 mm | - | 0 W/m² | - |
| 1777918803 | 19.44° C | 49% | 1084.5 hPa | 0 mm | - | 1 W/m² | - |
| 1777918503 | 19.44° C | 48% | 1084.2 hPa | 0 mm | - | 1 W/m² | - |
| 1777917964 | 19.44° C | 48% | 1084.3 hPa | 0 mm | - | 3 W/m² | - |
| 1777917064 | 20° C | 48% | 1084.5 hPa | 0 mm | - | 7 W/m² | - |
| 1777916884 | 20.56° C | 48% | 1084.2 hPa | 0 mm | - | 8 W/m² | - |
| 1777916643 | 20.56° C | 48% | 1084.4 hPa | 0 mm | - | 10 W/m² | - |
| 1777916164 | 20.56° C | 47% | 1084.6 hPa | 0 mm | - | 15 W/m² | - |
| 1777915923 | 20.56° C | 48% | 1084.2 hPa | 0 mm | - | 17 W/m² | - |
| 1777915263 | 21.11° C | 47% | 1084.4 hPa | 0 mm | - | 25 W/m² | - |
* Rain latest hour (hover to see other rain measurements)
** Current wind speed in m/s (hover to see current wind gust speed)